Tioga Municipal Airport, ND

1:20 AM CST on December 15, 2017 (GMT -0600)
Tioga Municipal Airport

Weather History for KD60 - December, 2013

Change the Weather History Date:

Saturday, December 7, 2013

  Actual Average (KISN) Record (KISN)
Temperature  
Mean Temperature -18 °F -  
Max Temperature -13 °F 26 °F 49 °F (1965)
Min Temperature -23 °F 5 °F -30 °F (1972)
Degree Days  
Heating Degree Days 83    
Moisture  
Dew Point -24 °F    
Average Humidity 77    
Maximum Humidity 84    
Minimum Humidity 70    
Precipitation  
Precipitation 0.00 in - - ()
Sea Level Pressure  
Sea Level Pressure 30.39 in    
Wind  
Wind Speed 10 mph (WSW)    
Max Wind Speed 15 mph    
Max Gust Speed -    
Visibility 10 miles    
Events      
Averages and records for this station are not official NWS values.
T = Trace of Precipitation, MM = Missing Value Source: NWS Daily Summary

Daily Weather History Graph

Daily Weather History Graph

Search for Another Location

Airport or City:

Trip Planner

Search our weather history database for the weather conditions in past years. The results will help you decide how hot, cold, wet, or windy it might be!

Date:

Astronomy

Dec. 07, 2013 Rise Set
Actual Time 8:29 AM CST 4:57 PM CST
Civil Twilight 7:52 AM CST 5:33 PM CST
Nautical Twilight 7:13 AM CST 6:13 PM CST
Astronomical Twilight 6:35 AM CST 6:51 PM CST
Moon 11:58 AM CST (12/7) 11:00 PM CST (12/7)
Length of Visible Light 9h 40m
Length of Day
8h 27m
Waxing Crescent, 29% of the Moon is Illuminated
Dec 7
Waxing Crescent
Dec 9
First Quarter
Dec 17
Full
Dec 25
Last Quarter
Jan 1
New

Hourly Weather History & Observations

Time (CST) Temp. Windchill Dew Point Humidity Pressure Visibility Wind Dir Wind Speed Gust Speed Precip Events Conditions
12:15 AM -18.4 °F -39.1 °F -25.6 °F 70% 30.50 in 10.0 mi West 10.4 mph - N/A   Overcast
12:35 AM -20.2 °F -42.4 °F -25.6 °F 76% 30.51 in 10.0 mi West 11.5 mph - N/A   Overcast
12:55 AM -20.2 °F -40.1 °F -25.6 °F 76% 30.50 in 10.0 mi West 9.2 mph - N/A   Overcast
1:15 AM -20.2 °F -42.4 °F -25.6 °F 76% 30.50 in 10.0 mi West 11.5 mph - N/A   Scattered Clouds
1:35 AM -22.0 °F -42.3 °F -27.4 °F 76% 30.50 in 10.0 mi West 9.2 mph - N/A   Partly Cloudy
1:55 AM -22.0 °F -43.6 °F -27.4 °F 76% 30.50 in 10.0 mi WSW 10.4 mph - N/A   Clear
2:15 AM -22.0 °F -42.3 °F -27.4 °F 76% 30.49 in 10.0 mi West 9.2 mph - N/A   Clear
2:35 AM -22.0 °F -42.3 °F -27.4 °F 76% 30.50 in 10.0 mi West 9.2 mph - N/A   Clear
2:55 AM -22.0 °F -42.3 °F -27.4 °F 76% 30.50 in 10.0 mi WSW 9.2 mph - N/A   Clear
3:15 AM -22.0 °F -43.6 °F -27.4 °F 76% 30.49 in 10.0 mi West 10.4 mph - N/A   Clear
3:35 AM -22.0 °F -44.7 °F -27.4 °F 76% 30.49 in 10.0 mi West 11.5 mph - N/A   Clear
3:55 AM -22.0 °F -41.0 °F -27.4 °F 76% 30.49 in 10.0 mi WSW 8.1 mph - N/A   Clear
4:15 AM -22.0 °F -42.3 °F -27.4 °F 76% 30.48 in 10.0 mi West 9.2 mph - N/A   Clear
4:35 AM -22.0 °F -43.6 °F -27.4 °F 76% 30.48 in 10.0 mi WSW 10.4 mph - N/A   Clear
4:55 AM -22.0 °F -42.3 °F -27.4 °F 76% 30.48 in 10.0 mi West 9.2 mph - N/A   Clear
5:15 AM -22.0 °F -39.4 °F -27.4 °F 76% 30.48 in 10.0 mi WSW 6.9 mph - N/A   Clear
5:35 AM -22.0 °F -42.3 °F -27.4 °F 76% 30.47 in 10.0 mi West 9.2 mph - N/A   Clear
5:55 AM -23.8 °F -44.5 °F -29.2 °F 76% 30.47 in 10.0 mi WSW 9.2 mph - N/A   Clear
6:15 AM -23.8 °F -43.2 °F -29.2 °F 76% 30.46 in 10.0 mi West 8.1 mph - N/A   Clear
6:35 AM -22.0 °F -39.4 °F -27.4 °F 76% 30.46 in 10.0 mi West 6.9 mph - N/A   Clear
6:55 AM -22.0 °F -42.3 °F -27.4 °F 76% 30.46 in 10.0 mi West 9.2 mph - N/A   Clear
7:15 AM -22.0 °F -42.3 °F -27.4 °F 76% 30.46 in 10.0 mi West 9.2 mph - N/A   Clear
7:35 AM -22.0 °F -42.3 °F -27.4 °F 76% 30.46 in 10.0 mi West 9.2 mph - N/A   Clear
7:55 AM -23.8 °F -41.6 °F -29.2 °F 76% 30.46 in 10.0 mi West 6.9 mph - N/A   Clear
8:15 AM -23.8 °F -39.8 °F -29.2 °F 76% 30.46 in 10.0 mi West 5.8 mph - N/A   Clear
8:35 AM -23.8 °F -37.7 °F -29.2 °F 76% 30.45 in 10.0 mi West 4.6 mph - N/A   Clear
8:55 AM -23.8 °F -37.7 °F -29.2 °F 76% 30.46 in 10.0 mi West 4.6 mph - N/A   Clear
9:15 AM -22.0 °F -39.4 °F -27.4 °F 76% 30.46 in 10.0 mi West 6.9 mph - N/A   Clear
9:35 AM -22.0 °F -42.3 °F -27.4 °F 76% 30.45 in 10.0 mi West 9.2 mph - N/A   Clear
9:55 AM -22.0 °F -42.3 °F -27.4 °F 76% 30.45 in 10.0 mi WSW 9.2 mph - N/A   Clear
10:15 AM -20.2 °F -42.4 °F -25.6 °F 76% 30.46 in 10.0 mi WSW 11.5 mph - N/A   Clear
10:35 AM -20.2 °F -42.4 °F -25.6 °F 76% 30.46 in 10.0 mi West 11.5 mph - N/A   Clear
10:55 AM -18.4 °F -40.2 °F -25.6 °F 70% 30.46 in 10.0 mi West 11.5 mph - N/A   Clear
11:15 AM -18.4 °F -39.1 °F -22.0 °F 84% 30.46 in 10.0 mi West 10.4 mph - N/A   Clear
11:35 AM -16.6 °F -36.8 °F -22.0 °F 76% 30.45 in 10.0 mi WSW 10.4 mph - N/A   Clear
11:55 AM -16.6 °F -39.8 °F -22.0 °F 76% 30.44 in 10.0 mi WSW 13.8 mph - N/A   Clear
12:15 PM -16.6 °F -38.9 °F -22.0 °F 76% 30.43 in 10.0 mi WSW 12.7 mph - N/A   Clear
12:35 PM -16.6 °F -37.9 °F -22.0 °F 76% 30.42 in 10.0 mi WSW 11.5 mph - N/A   Clear
12:55 PM -16.6 °F -40.6 °F -20.2 °F 84% 30.41 in 10.0 mi WSW 15.0 mph - N/A   Clear
1:15 PM -14.8 °F -36.6 °F -20.2 °F 77% 30.41 in 10.0 mi WSW 12.7 mph - N/A   Clear
1:35 PM -14.8 °F -36.6 °F -20.2 °F 77% 30.40 in 10.0 mi SW 12.7 mph - N/A   Clear
1:55 PM -13.0 °F -33.4 °F -20.2 °F 70% 30.39 in 10.0 mi WSW 11.5 mph - N/A   Clear
2:15 PM -13.0 °F -34.3 °F -20.2 °F 70% 30.38 in 10.0 mi SW 12.7 mph - N/A   Clear
2:35 PM -13.0 °F -34.3 °F -20.2 °F 70% 30.36 in 10.0 mi WSW 12.7 mph - N/A   Clear
2:55 PM -13.0 °F -35.2 °F -18.4 °F 77% 30.36 in 10.0 mi WSW 13.8 mph - N/A   Clear
3:15 PM -13.0 °F -34.3 °F -18.4 °F 77% 30.34 in 10.0 mi WSW 12.7 mph - N/A   Clear
3:35 PM -13.0 °F -32.4 °F -18.4 °F 77% 30.34 in 10.0 mi West 10.4 mph - N/A   Clear
3:55 PM -13.0 °F -28.6 °F -18.4 °F 77% 30.33 in 10.0 mi WSW 6.9 mph - N/A   Clear
4:15 PM -13.0 °F -31.3 °F -18.4 °F 77% 30.33 in 10.0 mi WSW 9.2 mph - N/A   Clear
4:35 PM -13.0 °F -30.0 °F -18.4 °F 77% 30.33 in 10.0 mi WSW 8.1 mph - N/A   Clear
4:55 PM -13.0 °F -28.6 °F -20.2 °F 70% 30.33 in 10.0 mi WSW 6.9 mph - N/A   Clear
5:15 PM -16.6 °F -31.3 °F -20.2 °F 84% 30.32 in 10.0 mi WSW 5.8 mph - N/A   Clear
5:35 PM -18.4 °F -35.1 °F -22.0 °F 84% 30.32 in 10.0 mi WSW 6.9 mph - N/A   Clear
5:55 PM -18.4 °F -35.1 °F -23.8 °F 76% 30.31 in 10.0 mi SW 6.9 mph - N/A   Clear
6:15 PM -20.2 °F -33.5 °F -23.8 °F 83% 30.31 in 10.0 mi SW 4.6 mph - N/A   Clear
6:35 PM -20.2 °F -37.3 °F -23.8 °F 83% 30.30 in 10.0 mi SW 6.9 mph - N/A   Clear
6:55 PM -20.2 °F -37.3 °F -25.6 °F 76% 30.30 in 10.0 mi SSW 6.9 mph - N/A   Clear
7:15 PM -18.4 °F -36.6 °F -22.0 °F 84% 30.28 in 10.0 mi SW 8.1 mph - N/A   Clear
7:35 PM -18.4 °F -37.9 °F -22.0 °F 84% 30.28 in 10.0 mi SW 9.2 mph - N/A   Clear
7:55 PM -16.6 °F -36.8 °F -20.2 °F 84% 30.27 in 10.0 mi WSW 10.4 mph - N/A   Clear
8:15 PM -16.6 °F -37.9 °F -20.2 °F 84% 30.27 in 10.0 mi WSW 11.5 mph - N/A   Clear
8:35 PM -16.6 °F -37.9 °F -22.0 °F 76% 30.26 in 10.0 mi WSW 11.5 mph - N/A   Clear
8:55 PM -16.6 °F -36.8 °F -22.0 °F 76% 30.26 in 10.0 mi SW 10.4 mph - N/A   Clear
9:15 PM -16.6 °F -38.9 °F -22.0 °F 76% 30.25 in 10.0 mi SW 12.7 mph - N/A   Clear
9:35 PM -18.4 °F -40.2 °F -22.0 °F 84% 30.25 in 10.0 mi SW 11.5 mph - N/A   Clear
9:55 PM -18.4 °F -39.1 °F -22.0 °F 84% 30.24 in 10.0 mi SW 10.4 mph - N/A   Clear
10:15 PM -18.4 °F -36.6 °F -23.8 °F 76% 30.23 in 10.0 mi SW 8.1 mph - N/A   Clear
10:35 PM -20.2 °F -40.1 °F -23.8 °F 83% 30.22 in 10.0 mi SW 9.2 mph - N/A   Clear
10:55 PM -20.2 °F -38.8 °F -25.6 °F 76% 30.22 in 10.0 mi SW 8.1 mph - N/A   Clear
11:15 PM -20.2 °F -37.3 °F -25.6 °F 76% 30.22 in 10.0 mi SSW 6.9 mph - N/A   Clear
11:35 PM -20.2 °F -40.1 °F -23.8 °F 83% 30.20 in 10.0 mi SW 9.2 mph - N/A   Clear
11:55 PM -20.2 °F -41.3 °F -23.8 °F 83% 30.19 in 10.0 mi SW 10.4 mph - N/A   Clear